N5VKM Weather Reports


time (UTC)temp
C
wind
direction
speed
KPH
gust
KPH
rain 1hr
cm
rain 24hr
cm
rain mn
cm
humidity
%
barometer
mb
20260504194056 27 333 0.0 0.0 0.00 0.00 0.00 53 1009.5
20260504193544 27 336 0.0 0.0 0.00 0.00 0.00 53 1009.5
20260504193032 27 333 0.0 0.0 0.00 0.00 0.00 53 1009.5
20260504192538 27 333 0.0 0.0 0.00 0.00 0.00 53 1009.7
20260504192031 26 334 0.0 0.0 0.00 0.00 0.00 53 1009.6
20260504191549 26 334 0.0 0.0 0.00 0.00 0.00 52 1009.9
20260504191042 26 333 0.0 0.0 0.00 0.00 0.00 52 1010.0
20260504190530 26 335 0.0 0.0 0.00 0.00 0.00 52 1010.2
20260504190044 26 335 0.0 0.0 0.00 0.00 0.00 52 1010.1
20260504185550 26 333 0.0 0.0 0.00 0.00 0.00 52 1010.2
20260504185043 26 334 0.0 0.0 0.00 0.00 0.00 52 1010.2
20260504184541 26 333 0.0 0.0 0.00 0.00 0.00 51 1010.2
20260504184049 25 333 0.0 0.0 0.00 0.00 0.00 52 1010.1
20260504183541 26 334 0.0 0.0 0.00 0.00 0.00 52 1010.3
20260504183048 26 335 0.0 0.0 0.00 0.00 0.00 51 1010.3
20260504182554 26 334 0.0 0.0 0.00 0.00 0.00 52 1010.4
20260504182032 25 333 0.0 0.0 0.00 0.00 0.00 54 1010.5
20260504181542 25 334 0.0 0.0 0.00 0.00 0.00 53 1010.6
20260504181036 25 334 0.0 0.0 0.00 0.00 0.00 53 1010.8
20260504180542 25 336 0.0 0.0 0.00 0.00 0.00 52 1010.8
20260504180042 25 335 0.0 0.0 0.00 0.00 0.00 53 1010.9
20260504175531 25 333 0.0 0.0 0.00 0.00 0.00 53 1010.9
20260504175038 25 333 0.0 0.0 0.00 0.00 0.00 53 1010.9
20260504174546 25 335 0.0 0.0 0.00 0.00 0.00 52 1011.1
20260504174035 25 335 0.0 0.0 0.00 0.00 0.00 52 1011.2
20260504173541 25 335 0.0 0.0 0.00 0.00 0.00 52 1011.2
20260504173031 25 335 0.0 0.0 0.00 0.00 0.00 52 1011.4
20260504172542 24 333 0.0 0.0 0.00 0.00 0.00 53 1011.5
20260504172032 24 334 0.0 0.0 0.00 0.00 0.00 52 1011.5
20260504171541 24 333 0.0 0.0 0.00 0.00 0.00 54 1011.5
20260504171030 24 333 0.0 0.0 0.00 0.00 0.00 52 1011.8
20260504170601 24 334 0.0 0.0 0.00 0.00 0.00 51 1011.9
20260504151042 21 335 0.0 0.0 0.00 0.00 0.00 60 1012.9
20260504150534 21 335 0.0 0.0 0.00 0.00 0.00 60 1013.0
20260504141029 20 335 0.0 0.0 0.00 0.00 0.00 67 1013.1
20260504140601 20 336 0.0 0.0 0.00 0.00 0.00 68 1013.1
20260504130547 18 336 0.0 0.0 0.00 0.00 0.00 70 1013.2
20260504110528 16 336 0.0 0.0 0.00 0.00 0.00 76 1012.9
20260504100542 16 336 0.0 0.0 0.00 0.00 0.00 71 1013.1
20260504081536 18 335 0.0 0.0 0.00 0.00 0.00 62 1013.8
20260504081045 18 336 0.0 0.0 0.00 0.00 0.00 62 1013.8
20260504080558 18 336 0.0 0.0 0.00 0.00 0.00 63 1013.8
20260504050558 19 336 0.0 0.0 0.00 0.00 0.00 57 1015.6
20260504045536 19 336 0.0 0.0 0.00 0.00 0.00 57 1015.7
20260504045047 19 336 0.0 0.0 0.00 0.00 0.00 57 1015.8
20260504044538 19 336 0.0 0.0 0.00 0.00 0.00 57 1015.8
20260504044029 19 336 0.0 0.0 0.00 0.00 0.00 56 1015.8
20260504043542 19 336 0.0 0.0 0.00 0.00 0.00 56 1015.8
20260504043035 19 335 0.0 0.0 0.00 0.00 0.00 56 1015.8
20260504042548 19 336 0.0 0.0 0.00 0.00 0.00 56 1015.8
20260504042035 19 336 0.0 0.0 0.00 0.00 0.00 56 1015.9
20260504041531 19 336 0.0 0.0 0.00 0.00 0.00 56 1015.9
20260504041041 19 336 0.0 0.0 0.00 0.00 0.00 56 1015.9
20260504040539 19 336 0.0 0.0 0.00 0.00 0.00 56 1015.9
20260504040045 20 336 0.0 0.0 0.00 0.00 0.00 55 1015.9
20260504035556 20 336 0.0 0.0 0.00 0.00 0.00 55 1015.9
20260504035046 20 336 0.0 0.0 0.00 0.00 0.00 55 1016.0
20260504034544 20 336 0.0 0.0 0.00 0.00 0.00 55 1015.9
20260504034032 20 335 0.0 0.0 0.00 0.00 0.00 54 1016.0
20260504033546 20 336 0.0 0.0 0.00 0.00 0.00 54 1015.9
20260504033044 20 335 0.0 0.0 0.00 0.00 0.00 54 1015.9
20260504032531 20 335 0.0 0.0 0.00 0.00 0.00 53 1015.8
20260504032040 20 336 0.0 0.0 0.00 0.00 0.00 53 1015.8
20260504031528 20 336 0.0 0.0 0.00 0.00 0.00 52 1015.8
20260504031040 20 336 0.0 0.0 0.00 0.00 0.00 52 1015.8
20260504030532 21 335 0.0 0.0 0.00 0.00 0.00 51 1015.8
20260504030045 21 336 0.0 0.0 0.00 0.00 0.00 51 1015.7
20260504025532 21 335 0.0 0.0 0.00 0.00 0.00 51 1015.6
20260504025044 21 334 0.0 0.0 0.00 0.00 0.00 50 1015.6
20260504024530 21 336 0.0 0.0 0.00 0.00 0.00 50 1015.7
20260504024042 21 334 0.0 0.0 0.00 0.00 0.00 50 1015.6
20260504023529 21 334 0.0 0.0 0.00 0.00 0.00 49 1015.6
20260504023047 21 334 0.0 0.0 0.00 0.00 0.00 49 1015.6
20260504022540 21 335 0.0 0.0 0.00 0.00 0.00 49 1015.6
20260504022049 21 334 0.0 0.0 0.00 0.00 0.00 48 1015.6
20260504021537 21 335 0.0 0.0 0.00 0.00 0.00 48 1015.5
20260504021028 21 336 0.0 0.0 0.00 0.00 0.00 48 1015.4
20260504020546 22 335 0.0 0.0 0.00 0.00 0.00 48 1015.4
20260504020033 22 335 0.0 0.0 0.00 0.00 0.00 47 1015.5
20260504015527 22 334 0.0 0.0 0.00 0.00 0.00 47 1015.5
20260504015101 22 335 0.0 0.0 0.00 0.00 0.00 47 1015.5
20260504014528 22 335 0.0 0.0 0.00 0.00 0.00 46 1015.4
20260504014104 22 334 0.0 0.0 0.00 0.00 0.00 46 1015.4
20260504013534 22 334 0.0 0.0 0.00 0.00 0.00 45 1015.4
20260504013042 23 336 0.0 0.0 0.00 0.00 0.00 45 1015.3
20260504012550 23 335 0.0 0.0 0.00 0.00 0.00 44 1015.3
20260504012040 23 334 0.0 0.0 0.00 0.00 0.00 44 1015.2
20260504011533 23 335 0.0 0.0 0.00 0.00 0.00 43 1015.2
20260504011042 23 334 0.0 0.0 0.00 0.00 0.00 42 1015.2
20260504010549 23 334 0.0 0.0 0.00 0.00 0.00 41 1015.1
20260504010057 24 334 0.0 0.0 0.00 0.00 0.00 39 1015.1
20260504005530 24 336 0.0 0.0 0.00 0.00 0.00 38 1015.1
20260504005037 25 336 0.0 0.0 0.00 0.00 0.00 37 1015.1
20260504004547 25 336 0.0 0.0 0.00 0.00 0.00 37 1015.1
20260504004038 25 335 0.0 0.0 0.00 0.00 0.00 36 1015.2
20260504003528 25 336 0.0 0.0 0.00 0.00 0.00 36 1015.1
20260504003104 25 336 0.0 0.0 0.00 0.00 0.00 36 1015.2
20260504002538 25 333 0.0 0.0 0.00 0.00 0.00 36 1015.1
20260504002047 25 336 0.0 0.0 0.00 0.00 0.00 35 1015.2
20260504001537 25 336 0.0 0.0 0.00 0.00 0.00 35 1015.1
20260504001045 25 336 0.0 0.0 0.00 0.00 0.00 35 1015.2
20260504000534 26 336 0.0 0.0 0.00 0.00 0.00 35 1015.2
20260504000044 26 336 0.0 0.0 0.00 0.00 0.00 35 1015.2
20260503235534 26 336 0.0 0.0 0.00 0.00 0.00 34 1015.2
20260503235106 26 335 0.0 0.0 0.00 0.00 0.00 34 1015.2
20260503234536 26 336 0.0 0.0 0.00 0.00 0.00 34 1015.3
20260503234050 26 335 0.0 0.0 0.00 0.00 0.00 35 1015.4
20260503233538 26 334 0.0 0.0 0.00 0.00 0.00 34 1015.3
20260503233028 26 336 0.0 0.0 0.00 0.00 0.00 35 1015.4
20260503232539 26 335 0.0 0.0 0.00 0.00 0.00 35 1015.5
20260503232029 26 334 0.0 0.0 0.00 0.00 0.00 34 1015.5
20260503231541 26 334 0.0 0.0 0.00 0.00 0.00 33 1015.5
20260503231034 26 336 0.0 0.0 0.00 0.00 0.00 35 1015.5
20260503230547 27 334 0.0 0.0 0.00 0.00 0.00 34 1015.5
20260503230059 27 336 0.0 0.0 0.00 0.00 0.00 34 1015.5
20260503225545 27 333 0.0 0.0 0.00 0.00 0.00 33 1015.5
20260503225052 27 333 0.0 0.0 0.00 0.00 0.00 34 1015.6
20260503224545 27 335 0.0 0.0 0.00 0.00 0.00 35 1015.6
20260503224035 27 335 0.0 0.0 0.00 0.00 0.00 35 1015.7
20260503223544 27 334 0.0 0.0 0.00 0.00 0.00 35 1015.7
20260503223037 27 335 0.0 0.0 0.00 0.00 0.00 34 1015.8
20260503222530 27 333 0.0 0.0 0.00 0.00 0.00 34 1015.8
20260503222048 27 335 0.0 0.0 0.00 0.00 0.00 35 1015.9
20260503221536 27 334 0.0 0.0 0.00 0.00 0.00 35 1015.9
20260503221042 28 335 0.0 0.0 0.00 0.00 0.00 34 1015.9
20260503220532 28 335 0.0 0.0 0.00 0.00 0.00 34 1016.0
20260503220043 28 333 0.0 0.0 0.00 0.00 0.00 34 1015.9
20260503215529 27 335 0.0 0.0 0.00 0.00 0.00 33 1016.0
20260503215027 27 334 0.0 0.0 0.00 0.00 0.00 34 1016.1
20260503214538 28 334 0.0 0.0 0.00 0.00 0.00 34 1016.1
20260503214049 28 334 0.0 0.0 0.00 0.00 0.00 36 1016.1
20260503213541 27 333 0.0 0.0 0.00 0.00 0.00 35 1016.2
20260503213050 27 334 0.0 0.0 0.00 0.00 0.00 33 1016.3
20260503212538 27 334 0.0 0.0 0.00 0.00 0.00 33 1016.4
20260503212044 27 333 0.0 0.0 0.00 0.00 0.00 33 1016.6
20260503211559 28 334 0.0 0.0 0.00 0.00 0.00 33 1016.7
20260503211048 28 334 0.0 0.0 0.00 0.00 0.00 34 1016.7
20260503210536 28 336 0.0 0.0 0.00 0.00 0.00 34 1016.7
20260503210044 28 333 0.0 0.0 0.00 0.00 0.00 35 1016.9
20260503205532 28 333 0.0 0.0 0.00 0.00 0.00 36 1017.0
20260503205046 28 334 0.0 0.0 0.00 0.00 0.00 36 1017.0
20260503204534 28 334 0.0 0.0 0.00 0.00 0.00 35 1017.1
20260503204041 28 334 0.0 0.0 0.00 0.00 0.00 36 1017.2
20260503203532 28 334 0.0 0.0 0.00 0.00 0.00 35 1017.3
20260503203049 28 336 0.0 0.0 0.00 0.00 0.00 34 1017.4
20260503202539 28 332 0.0 0.0 0.00 0.00 0.00 35 1017.5
20260503202027 28 334 0.0 0.0 0.00 0.00 0.00 35 1017.6
20260503201541 28 335 0.0 0.0 0.00 0.00 0.00 35 1017.7
20260503201052 28 333 0.0 0.0 0.00 0.00 0.00 34 1017.7
20260503200540 28 336 0.0 0.0 0.00 0.00 0.00 33 1017.8
20260503200048 28 336 0.0 0.0 0.00 0.00 0.00 34 1017.9
20260503195555 28 336 0.0 0.0 0.00 0.00 0.00 35 1018.0
20260503195027 27 333 0.0 0.0 0.00 0.00 0.00 36 1018.1
20260503194601 27 336 0.0 0.0 0.00 0.00 0.00 35 1018.1